{"data":{"norad_id":51727,"epoch":"2026-05-24T22:51:27.938016Z","epoch_age_seconds":79902,"freshness":"FRESH","line1":"1 51727U 22016P   26144.95240669  .00000584  00000+0  54767-4 0  9990","line2":"2 51727  53.2161 346.7636 0001172  85.3508 274.7618 15.08839534234939","mean_motion":15.08839534,"eccentricity":0.0001172,"inclination_deg":53.2161,"raan_deg":346.7636,"arg_perigee_deg":85.3508,"mean_anomaly_deg":274.7618,"bstar":5.4767e-5,"rev_number":23493,"period_min":95.437584153333,"perigee_km":538.93403759152,"apogee_km":540.55558908857,"semimajor_km":6917.88181334,"source":"CELESTRAK","updated_at":"2026-05-25T13:38:16.922430Z"}}